Lid_Strength_Index
1 1 0 0 0 -0 -0 -1 -0 -0 -0 0 0 0 0 -0 -0 1 4 1 1 -2 -1 3 4 4 4 4 4 5 10 11 10 10 10 8 10 8 7 8 8 6 7 7 4
1 1 1 0 0 -0 -0 -1 -0 -0 -0 -0 -0 -0 0 0 2 4 0 -1 -2 -2 3 4 5 5 6 5 5 8 10 9 8 9 10 9 10 10 10 10 9 8 7 6 4
1 1 1 1 0 -0 -0 -1 -1 -1 -1 -0 -0 -0 0 1 4 4 -1 -2 -3 -1 3 4 4 5 7 6 7 7 10 8 8 8 8 9 10 9 10 10 9 9 8 8 7
1 1 1 1 0 0 -0 -0 -1 -1 -1 -1 -0 -0 0 2 9 2 -2 -2 -2 2 4 5 5 7 8 9 7 9 8 8 7 7 8 10 9 10 9 9 8 8 7 8 8
1 1 1 1 1 0 -0 -0 -1 -1 -0 -0 -0 -0 2 5 6 -0 -2 -2 1 3 5 6 7 7 9 8 8 9 8 7 8 8 8 8 9 10 9 8 7 7 7 8 8
1 1 1 1 1 0 -0 -0 -1 -0 -0 0 0 0 4 8 3 0 0 1 3 4 5 5 6 7 8 9 10 9 9 8 8 8 8 9 9 9 9 8 8 8 9 8 8
1 1 1 1 0 0 -0 -0 -0 0 0 0 0 2 5 6 2 1 2 3 3 4 5 5 5 7 7 9 8 9 11 10 10 10 10 10 12 11 9 9 9 9 9 8 8
1 1 1 1 1 0 0 -0 0 1 0 0 0 3 8 4 3 4 4 4 4 4 5 5 5 7 8 8 9 11 12 14 11 10 11 11 14 10 8 9 9 9 9 9 9
1 2 2 2 1 1 1 1 2 1 1 2 3 5 8 4 6 5 5 6 5 5 6 6 6 8 9 12 14 13 16 14 12 10 11 12 14 10 8 10 9 10 10 9 9
2 2 2 1 1 1 1 0 2 2 2 2 4 8 7 8 6 6 6 6 6 7 8 9 10 12 13 14 17 15 15 13 13 11 10 12 13 11 10 10 10 11 10 10 10
2 2 2 2 1 1 1 3 6 7 6 7 7 7 8 6 5 6 6 7 7 9 12 11 14 15 13 13 13 14 14 14 12 10 12 12 12 12 10 10 10 10 10 10 10
2 1 1 1 1 0 1 4 6 6 8 4 4 5 6 6 8 8 7 10 10 12 11 13 15 12 11 11 12 14 15 15 12 11 13 13 13 11 11 10 10 11 10 10 10
2 2 2 2 1 2 3 5 5 6 9 6 7 7 8 8 8 8 9 9 11 12 12 14 12 10 11 13 13 14 15 14 14 13 13 15 15 13 10 10 10 10 11 11 11
2 2 2 2 3 2 4 5 5 5 11 9 10 10 9 9 11 9 8 10 10 12 11 12 11 12 12 13 13 15 13 14 14 16 18 14 20 15 12 12 11 12 12 12 12
3 3 2 2 3 4 5 4 5 7 19 11 12 8 9 11 11 11 9 10 12 12 13 13 14 14 14 13 12 14 13 15 15 17 17 16 19 16 13 14 13 13 12 12 12
3 3 3 3 4 6 7 7 7 13 19 14 12 12 12 12 11 11 11 10 10 12 12 13 13 13 13 12 12 12 14 14 15 16 20 16 16 16 15 13 13 13 12 11 11
3 3 3 2 5 6 7 7 13 18 10 14 13 12 12 13 12 12 13 13 14 16 16 13 13 12 12 13 13 14 15 19 19 20 20 14 16 15 12 11 12 12 12 12 12
3 3 4 3 5 5 5 9 17 13 12 10 12 11 13 11 11 12 12 13 12 12 14 15 16 13 12 12 13 14 14 18 22 21 19 15 18 14 12 11 10 11 11 12 13
3 3 4 3 4 4 7 14 15 12 10 11 10 12 12 10 10 11 12 12 11 11 14 15 15 12 12 11 12 13 15 12 16 20 21 17 14 11 11 12 12 12 12 13 13
4 5 4 2 3 4 10 14 12 9 9 9 14 12 14 12 12 11 11 11 12 11 11 12 16 12 12 12 12 13 11 16 16 21 24 19 18 16 13 13 12 13 13 13 13
7 9 6 3 3 7 13 12 10 8 8 10 11 12 12 12 11 12 12 11 11 11 11 11 13 15 12 13 13 13 14 13 13 14 19 20 18 12 13 13 14 13 12 13 12
8 12 6 3 10 9 11 10 9 9 8 9 9 10 12 11 13 13 13 11 9 10 12 11 12 16 14 10 9 10 12 11 16 17 15 15 15 10 11 12 12 12 11 12 11
9 9 5 5 12 12 10 11 10 10 10 10 10 9 10 12 14 12 12 9 8 9 11 10 14 17 17 13 11 13 12 11 12 14 17 19 16 8 9 12 12 13 14 13 12
9 12 9 8 8 10 10 11 12 9 10 9 9 9 11 12 10 12 11 9 9 9 8 8 13 15 17 14 13 15 13 11 12 16 16 16 14 11 10 10 13 13 13 14 13
8 10 10 13 11 9 8 9 11 11 8 8 9 9 10 12 11 11 10 10 9 9 9 10 14 13 13 12 11 13 14 13 13 13 16 14 13 11 10 11 14 13 13 13 13
8 10 9 10 8 9 9 10 10 9 9 10 10 9 9 11 11 13 11 11 11 11 11 11 15 14 16 13 13 15 14 13 13 13 13 12 13 11 13 13 15 13 13 13 12
8 8 9 9 10 10 10 10 10 8 10 9 9 10 11 10 10 10 10 10 11 12 13 13 15 18 21 15 16 20 16 14 14 13 13 16 15 14 14 14 14 14 13 12 11